819  
ASUS46 KEKA 200017  
RWREKA  
EUREKA AREA WEATHER ROUNDUP  
NATIONAL WEATHER SERVICE EUREKA CA  
400 PM PST FRI JAN 19 2018  
 
NOTE: "FAIR" INDICATES FEW OR NO CLOUDS BELOW 12,000 FEET WITH NO  
SIGNIFICANT WEATHER AND/OR S TO VISIBILITY
.  
 
SOUTHWEST OREGON...  
 
CITY SKY/WX TMP DP RH WIND PRES REMARKS
 
MEDFORD PTCLDY 47 36 65 NW6 30.07R  
KLAMATH FALLS MOCLDY 34 27 75 SW3 30.00S  
NORTH BEND MOCLDY N/A N/A N/A MISG 30.09S  
ROSEBURG CLOUDY 46 39 76 SW6 30.09R  
SEXTON SUMMIT FOG 31 29 92 SW10 30.00R VSB<1/4  
BROOKINGS LGT RAIN 43 42 97 NE3 30.13R FOG  
 
NORTHWEST CALIFORNIA...  
 
CITY SKY/WX TMP DP RH WIND PRES REMARKS
 
CRESCENT CITY LGT RAIN 48 42 80 E8 30.13S  
MCKINLEYVILLE PTSUNNY 52 40 63 SW3 30.13R HAZE  
EUREKA MOSUNNY 50 50 100 NW5 30.14R  
FORTUNA PTSUNNY 48 43 81 NW5 30.13S  
WEAVERVILLE NOT AVBL  
TRINITY CENTER N/A 41 36 81 CALM 30.05S  
UKIAH PTSUNNY 48 37 65 N7 30.09R  
 
NORTH & CENTRAL CALIFORNIA...  
 
CITY SKY/WX TMP DP RH WIND PRES REMARKS
 
YREKA PTCLDY 43 31 62 NW3 30.04R  
MOUNT SHASTA MOSUNNY 37 31 78 CALM 30.00R  
REDDING PTSUNNY 54 34 46 CALM 30.06S  
RED BLUFF LGT RAIN 51 40 65 NW8 30.07R  
CHICO N/A 54 36 50 NW7 30.06S  
YUBA CITY SUNNY 56 39 53 N6 30.05F  
SACRAMENTO MOSUNNY 57 37 47 W8 30.05S  
SANTA ROSA MOSUNNY 52 43 71 NW7 30.06F  
NAPA MOSUNNY 54 41 61 W15 30.06F  
SAN FRANCISCO PTSUNNY 54 38 54 W15 30.07F  
OAKLAND MOSUNNY 54 44 69 NW10 30.07F  
SALINAS MOSUNNY 57 39 51 W14 30.06S  
MONTEREY MOSUNNY 55 43 63 W9 30.07F  
 

 
 
 
CLICK HERE TO GO TO PREVIOUS BULLETINS.

The Nexlab CA Page Main Text Page